�������l�o���
Date,Time,MP-1(��Sv/h),MP-2(��Sv/h),MP-3(��Sv/h),MP-4(��Sv/h),MP-5(��Sv/h),MP-6(��Sv/h),MP-7(��Sv/h),MP-8(��Sv/h),����,����(m/s),���J
2020/08/28,00:00,0.712,1.023,0.646,1.253,0.909,0.400,0.699,0.653,��,5.8,��
2020/08/28,00:10,0.714,1.027,0.646,1.252,0.909,0.400,0.698,0.653,��,6.0,��
2020/08/28,00:20,0.714,1.024,0.645,1.254,0.909,0.399,0.699,0.653,��,6.0,��
2020/08/28,00:30,0.716,1.023,0.644,1.252,0.908,0.399,0.702,0.652,��,5.3,��
2020/08/28,00:40,0.714,1.023,0.646,1.251,0.910,0.399,0.701,0.653,��,5.2,��
2020/08/28,00:50,0.713,1.023,0.644,1.253,0.908,0.400,0.702,0.654,��,4.9,��
2020/08/28,01:00,0.714,1.023,0.646,1.254,0.911,0.399,0.701,0.653,��,5.3,��
2020/08/28,01:10,0.714,1.022,0.644,1.253,0.909,0.401,0.700,0.653,��,4.5,��
2020/08/28,01:20,0.715,1.023,0.647,1.254,0.910,0.400,0.699,0.653,��쐼,3.6,��
2020/08/28,01:30,0.715,1.022,0.646,1.251,0.910,0.400,0.699,0.654,��쐼,4.1,��
2020/08/28,01:40,0.715,1.025,0.645,1.253,0.909,0.398,0.700,0.654,��,4.6,��
2020/08/28,01:50,0.715,1.026,0.646,1.253,0.910,0.399,0.699,0.654,��,4.8,��
2020/08/28,02:00,0.714,1.024,0.644,1.253,0.911,0.400,0.700,0.654,��,5.0,��
2020/08/28,02:10,0.715,1.024,0.645,1.253,0.908,0.398,0.700,0.653,��,5.7,��
2020/08/28,02:20,0.716,1.024,0.645,1.252,0.909,0.400,0.699,0.654,��,5.1,��
2020/08/28,02:30,0.714,1.021,0.645,1.252,0.909,0.400,0.700,0.653,��쐼,4.6,��
2020/08/28,02:40,0.715,1.023,0.646,1.255,0.912,0.400,0.701,0.653,��쐼,4.8,��
2020/08/28,02:50,0.713,1.022,0.646,1.253,0.909,0.400,0.700,0.653,��,4.5,��
2020/08/28,03:00,0.714,1.023,0.644,1.256,0.910,0.400,0.700,0.652,��쐼,3.6,��
2020/08/28,03:10,0.717,1.023,0.645,1.254,0.908,0.400,0.701,0.653,��,4.1,��
2020/08/28,03:20,0.714,1.023,0.646,1.253,0.909,0.402,0.701,0.654,��,4.7,��
2020/08/28,03:30,0.715,1.023,0.645,1.254,0.910,0.401,0.699,0.653,��,5.4,��
2020/08/28,03:40,0.714,1.025,0.646,1.255,0.909,0.398,0.700,0.653,��,5.3,��
2020/08/28,03:50,0.715,1.024,0.645,1.253,0.908,0.399,0.699,0.653,��,6.3,��
2020/08/28,04:00,0.715,1.024,0.644,1.252,0.910,0.398,0.700,0.652,��쐼,7.1,��
2020/08/28,04:10,0.714,1.024,0.645,1.255,0.908,0.397,0.698,0.653,��쐼,6.8,��
2020/08/28,04:20,0.713,1.024,0.646,1.253,0.908,0.400,0.699,0.652,��쐼,7.0,��
2020/08/28,04:30,0.716,1.024,0.646,1.252,0.909,0.398,0.700,0.653,��,6.3,��
2020/08/28,04:40,0.715,1.023,0.645,1.252,0.908,0.399,0.701,0.654,��쐼,6.2,��
2020/08/28,04:50,0.717,1.023,0.644,1.254,0.908,0.399,0.700,0.653,��,4.7,��
2020/08/28,05:00,0.715,1.024,0.647,1.255,0.910,0.398,0.699,0.653,��,4.7,��
2020/08/28,05:10,0.715,1.024,0.646,1.252,0.911,0.400,0.699,0.652,��,4.7,��
2020/08/28,05:20,0.714,1.022,0.647,1.252,0.907,0.399,0.698,0.653,��,4.5,��
2020/08/28,05:30,0.715,1.023,0.646,1.254,0.908,0.399,0.699,0.654,��,4.9,��
2020/08/28,05:40,0.715,1.021,0.645,1.254,0.909,0.399,0.699,0.653,��,5.1,��
2020/08/28,05:50,0.715,1.023,0.647,1.255,0.907,0.398,0.699,0.651,��쐼,4.0,��
2020/08/28,06:00,0.714,1.023,0.644,1.256,0.907,0.398,0.700,0.652,��쐼,3.7,��
2020/08/28,06:10,0.714,1.023,0.646,1.254,0.910,0.399,0.700,0.651,��쐼,3.7,��
2020/08/28,06:20,0.714,1.022,0.645,1.254,0.908,0.398,0.699,0.653,��쐼,3.2,��
2020/08/28,06:30,0.714,1.022,0.646,1.254,0.908,0.399,0.700,0.653,��쐼,3.7,��
2020/08/28,06:40,0.718,1.019,0.647,1.253,0.908,0.398,0.701,0.654,��,3.5,��
2020/08/28,06:50,0.715,1.021,0.645,1.253,0.910,0.400,0.699,0.651,��쐼,2.9,��
2020/08/28,07:00,0.716,1.022,0.645,1.253,0.910,0.398,0.699,0.653,��,3.5,��
2020/08/28,07:10,0.716,1.022,0.647,1.253,0.907,0.400,0.699,0.651,��,4.0,��
2020/08/28,07:20,0.715,1.021,0.645,1.255,0.906,0.399,0.700,0.652,��,4.5,��
2020/08/28,07:30,0.717,1.023,0.645,1.254,0.909,0.399,0.700,0.652,��,4.2,��
2020/08/28,07:40,0.717,1.022,0.645,1.253,0.908,0.399,0.700,0.653,��,4.1,��
2020/08/28,07:50,0.715,1.022,0.645,1.254,0.907,0.399,0.700,0.652,��쓌,4.4,��
2020/08/28,08:00,0.714,1.020,0.646,1.254,0.910,0.399,0.703,0.654,��쓌,5.5,��
2020/08/28,08:10,0.713,1.022,0.644,1.253,0.907,0.400,0.702,0.653,��쓌,5.6,��
2020/08/28,08:20,0.717,1.020,0.646,1.254,0.907,0.400,0.701,0.653,��쓌,6.2,��
2020/08/28,08:30,0.716,1.021,0.643,1.253,0.907,0.398,0.702,0.654,��쓌,7.5,��
2020/08/28,08:40,0.715,1.022,0.645,1.257,0.907,0.400,0.700,0.654,��쓌,9.5,��
2020/08/28,08:50,0.715,1.017,0.645,1.254,0.908,0.399,0.700,0.651,��쓌,9.0,��
2020/08/28,09:00,0.717,1.020,0.646,1.252,0.910,0.400,0.700,0.651,��쓌,10.2,��
2020/08/28,09:10,0.716,1.017,0.644,1.255,0.909,0.400,0.701,0.653,��,8.8,��
2020/08/28,09:20,0.717,1.018,0.646,1.255,0.908,0.398,0.701,0.652,��쓌,8.1,��
2020/08/28,09:30,0.714,1.018,0.645,1.256,0.909,0.398,0.702,0.651,��쓌,9.5,��
2020/08/28,09:40,0.713,1.018,0.646,1.256,0.909,0.398,0.699,0.651,��,9.1,��
2020/08/28,09:50,0.715,1.019,0.646,1.254,0.910,0.398,0.699,0.652,��,10.3,��
2020/08/28,10:00,0.717,1.014,0.648,1.254,0.910,0.400,0.700,0.651,��,9.6,��
2020/08/28,10:10,0.716,1.020,0.645,1.255,0.910,0.399,0.699,0.652,��,9.2,��
2020/08/28,10:20,0.715,1.019,0.645,1.257,0.910,0.399,0.701,0.652,��,9.4,��
2020/08/28,10:30,0.715,1.022,0.645,1.257,0.914,0.400,0.701,0.652,��,10.5,��
2020/08/28,10:40,0.717,1.019,0.648,1.258,0.913,0.399,0.700,0.654,��,9.5,��
2020/08/28,10:50,0.715,1.020,0.645,1.255,0.912,0.401,0.699,0.653,��,10.0,��
2020/08/28,11:00,0.716,1.019,0.645,1.257,0.913,0.400,0.701,0.653,��,10.2,��
2020/08/28,11:10,0.715,1.021,0.648,1.257,0.914,0.400,0.701,0.653,��쓌,11.8,��
2020/08/28,11:20,0.716,1.023,0.648,1.258,0.913,0.398,0.699,0.653,��쓌,13.3,��
2020/08/28,11:30,0.717,1.019,0.646,1.256,0.913,0.398,0.700,0.652,��,12.4,��
2020/08/28,11:40,0.717,1.020,0.648,1.255,0.913,0.399,0.699,0.652,��쓌,12.5,��
2020/08/28,11:50,0.714,1.022,0.646,1.254,0.913,0.400,0.699,0.652,��쓌,13.1,��
2020/08/28,12:00,0.717,1.023,0.650,1.257,0.912,0.400,0.701,0.652,��쓌,12.8,��
2020/08/28,12:10,0.717,1.024,0.647,1.255,0.913,0.398,0.702,0.653,��쓌,12.1,��
2020/08/28,12:20,0.717,1.022,0.648,1.255,0.914,0.400,0.704,0.652,��쓌,11.9,��
2020/08/28,12:30,0.716,1.024,0.648,1.258,0.914,0.399,0.702,0.654,��,11.6,��
2020/08/28,12:40,0.715,1.025,0.648,1.256,0.912,0.401,0.702,0.653,��쓌,11.3,��
2020/08/28,12:50,0.717,1.026,0.649,1.257,0.914,0.401,0.704,0.653,��쓌,13.3,��
2020/08/28,13:00,0.718,1.023,0.648,1.259,0.912,0.399,0.702,0.653,��,13.0,��
2020/08/28,13:10,0.716,1.021,0.646,1.255,0.914,0.399,0.702,0.654,��,11.6,��
2020/08/28,13:20,0.716,1.020,0.647,1.258,0.916,0.400,0.704,0.655,��쓌,11.4,��
2020/08/28,13:30,0.715,1.020,0.645,1.257,0.912,0.399,0.703,0.654,��,12.4,��
2020/08/28,13:40,0.717,1.020,0.646,1.258,0.916,0.399,0.704,0.655,��,10.2,��
2020/08/28,13:50,0.718,1.021,0.645,1.257,0.913,0.402,0.701,0.656,��쓌,9.8,��
2020/08/28,14:00,0.716,1.020,0.646,1.258,0.914,0.400,0.704,0.656,��쓌,10.3,��
2020/08/28,14:10,0.717,1.023,0.648,1.260,0.915,0.401,0.703,0.656,��쓌,8.8,��
2020/08/28,14:20,0.717,1.022,0.649,1.258,0.916,0.402,0.704,0.656,��쓌,11.0,��
2020/08/28,14:30,0.716,1.026,0.649,1.259,0.916,0.401,0.703,0.656,��,10.9,��
2020/08/28,14:40,0.716,1.020,0.650,1.257,0.915,0.400,0.702,0.656,��,10.2,��
2020/08/28,14:50,0.715,1.022,0.650,1.257,0.915,0.401,0.704,0.653,��,10.2,��
2020/08/28,15:00,0.716,1.021,0.648,1.257,0.916,0.400,0.704,0.655,��쓌,9.5,��
2020/08/28,15:10,0.717,1.023,0.651,1.257,0.913,0.398,0.704,0.654,��,9.4,��
2020/08/28,15:20,0.717,1.024,0.649,1.257,0.913,0.401,0.704,0.654,��,8.0,��
2020/08/28,15:30,0.716,1.023,0.649,1.257,0.915,0.401,0.703,0.654,��,9.4,��
2020/08/28,15:40,0.715,1.026,0.650,1.259,0.917,0.400,0.703,0.655,��,9.3,��
2020/08/28,15:50,0.717,1.025,0.650,1.256,0.916,0.400,0.702,0.652,��,9.9,��
2020/08/28,16:00,0.718,1.028,0.649,1.259,0.915,0.402,0.702,0.655,��,9.9,��
2020/08/28,16:10,0.718,1.026,0.648,1.261,0.914,0.401,0.701,0.654,��,7.2,��
2020/08/28,16:20,0.716,1.025,0.647,1.261,0.914,0.401,0.702,0.655,��,9.6,��
2020/08/28,16:30,0.717,1.026,0.648,1.261,0.915,0.400,0.702,0.654,��,8.0,��
2020/08/28,16:40,0.718,1.028,0.648,1.261,0.915,0.401,0.702,0.655,��,7.6,��
2020/08/28,16:50,0.717,1.024,0.647,1.258,0.914,0.400,0.701,0.653,��,8.8,��
2020/08/28,17:00,0.716,1.024,0.647,1.261,0.914,0.400,0.700,0.654,��,9.7,��
2020/08/28,17:10,0.718,1.026,0.649,1.261,0.912,0.401,0.702,0.655,��,9.8,��
2020/08/28,17:20,0.716,1.025,0.650,1.259,0.913,0.400,0.701,0.653,��,9.1,��
2020/08/28,17:30,0.716,1.024,0.646,1.258,0.912,0.399,0.700,0.654,��,7.3,��
2020/08/28,17:40,0.717,1.026,0.648,1.258,0.914,0.401,0.702,0.653,��,7.4,��
2020/08/28,17:50,0.716,1.023,0.648,1.257,0.914,0.400,0.700,0.654,��,6.9,��
2020/08/28,18:00,0.717,1.023,0.648,1.258,0.914,0.399,0.701,0.654,��,8.1,��
2020/08/28,18:10,0.715,1.025,0.647,1.260,0.914,0.400,0.701,0.653,��,7.1,��
2020/08/28,18:20,0.718,1.026,0.646,1.259,0.913,0.399,0.701,0.654,��,7.4,��
2020/08/28,18:30,0.717,1.026,0.648,1.259,0.914,0.400,0.702,0.654,��,6.6,��
2020/08/28,18:40,0.717,1.023,0.648,1.259,0.914,0.400,0.701,0.653,��,7.1,��
2020/08/28,18:50,0.715,1.025,0.646,1.260,0.914,0.400,0.701,0.652,��,6.6,��
2020/08/28,19:00,0.717,1.021,0.647,1.257,0.914,0.401,0.700,0.652,��,7.1,��
2020/08/28,19:10,0.717,1.021,0.648,1.258,0.915,0.401,0.702,0.654,��,6.5,��
2020/08/28,19:20,0.718,1.020,0.648,1.256,0.911,0.399,0.702,0.654,��,5.9,��
2020/08/28,19:30,0.717,1.021,0.648,1.261,0.911,0.399,0.700,0.654,��,4.1,��
2020/08/28,19:40,0.715,1.023,0.646,1.256,0.915,0.398,0.700,0.654,��,4.4,��
2020/08/28,19:50,0.718,1.025,0.647,1.258,0.913,0.399,0.701,0.653,��,4.2,��
2020/08/28,20:00,0.716,1.024,0.646,1.257,0.913,0.399,0.700,0.654,��,4.0,��
2020/08/28,20:10,0.717,1.027,0.648,1.258,0.913,0.398,0.701,0.653,��,4.0,��
2020/08/28,20:20,0.716,1.024,0.647,1.258,0.912,0.399,0.702,0.655,��,3.7,��
2020/08/28,20:30,0.718,1.025,0.646,1.258,0.912,0.398,0.701,0.653,��,4.2,��
2020/08/28,20:40,0.718,1.024,0.647,1.256,0.914,0.398,0.701,0.656,��,4.6,��
2020/08/28,20:50,0.719,1.025,0.647,1.257,0.915,0.399,0.704,0.653,��,4.1,��
2020/08/28,21:00,0.718,1.024,0.647,1.255,0.914,0.399,0.702,0.653,��,4.3,��
2020/08/28,21:10,0.716,1.026,0.648,1.259,0.914,0.400,0.702,0.653,��,5.0,��
2020/08/28,21:20,0.719,1.026,0.648,1.258,0.912,0.400,0.700,0.653,��,4.8,��
2020/08/28,21:30,0.718,1.026,0.649,1.256,0.913,0.400,0.700,0.654,��,4.5,��
2020/08/28,21:40,0.717,1.024,0.647,1.259,0.913,0.400,0.702,0.654,��,4.2,��
2020/08/28,21:50,0.718,1.028,0.648,1.258,0.916,0.401,0.703,0.654,��,4.0,��
2020/08/28,22:00,0.716,1.025,0.648,1.257,0.913,0.399,0.701,0.653,��쐼,3.6,��
2020/08/28,22:10,0.716,1.025,0.648,1.257,0.911,0.401,0.701,0.655,��,3.8,��
2020/08/28,22:20,0.716,1.024,0.648,1.259,0.915,0.400,0.699,0.653,��,4.2,��
2020/08/28,22:30,0.718,1.026,0.648,1.257,0.915,0.400,0.703,0.653,��,4.5,��
2020/08/28,22:40,0.717,1.025,0.647,1.258,0.913,0.401,0.702,0.653,��,4.8,��
2020/08/28,22:50,0.717,1.025,0.648,1.257,0.913,0.399,0.702,0.653,��,5.5,��
2020/08/28,23:00,0.716,1.025,0.646,1.261,0.913,0.400,0.701,0.654,��,5.9,��
2020/08/28,23:10,0.717,1.026,0.650,1.256,0.912,0.400,0.702,0.654,��,6.1,��
2020/08/28,23:20,0.716,1.025,0.650,1.258,0.916,0.401,0.701,0.653,��,5.7,��
2020/08/28,23:30,0.719,1.027,0.647,1.256,0.914,0.400,0.701,0.654,��,6.0,��
2020/08/28,23:40,0.718,1.024,0.649,1.259,0.914,0.400,0.702,0.654,��쐼,6.2,��
2020/08/28,23:50,0.716,1.027,0.647,1.257,0.914,0.401,0.701,0.653,��쐼,5.6,��
